User: anonymous   Login
Location: Unspecified
(0.0000°N, 0.0000°E)
Time: 19:01:21
(UTC+00:00)
Language:

CP4 - Orbit

View from above orbital plane
View from above orbital plane
View from above satellite
View from above satellite

Ground track
Ground track

The orbit data is extracted from the following two-line orbital elements,

1 31132U 07012Q   18350.80569858  .00000073  00000-0  24973-4 0  9995
2 31132  98.1020 295.9693 0079621 227.5919 131.8526 14.59030636620297
Epoch (UTC): 16 December 2018 19:20:12
Eccentricity: 0.0079621
inclination: 98.1020°
perigee height: 640 km
apogee height: 752 km
right ascension of ascending node: 295.9693°
argument of perigee: 227.5919°
revolutions per day: 14.59030636
mean anomaly at epoch: 131.8526°
orbit number at epoch: 62029

The dashed part of the orbit path shows where the satellite is in the earth's shadow,  

DLR